| time (UTC) | temp F | wind direction | speed MPH | gust MPH | rain 1hr in | rain 24hr in | rain mn in | humidity % | barometer mb |
| 20260510163026 | 45 | 333 | 3.0 | 20.0 | 0.00 | 0.00 | 0.00 | 48 | 1020.0 |
| 20260510161522 | 44 | 352 | 5.0 | 13.0 | 0.00 | 0.00 | 0.00 | 49 | 1019.7 |
| 20260510160031 | 44 | 67 | 7.0 | 17.0 | 0.00 | 0.00 | 0.00 | 49 | 1019.7 |
| 20260510154529 | 44 | 340 | 5.0 | 16.0 | 0.00 | 0.00 | 0.00 | 49 | 1019.5 |
| 20260510153021 | 44 | 347 | 12.0 | 19.0 | 0.00 | 0.00 | 0.00 | 51 | 1019.3 |
| 20260510151526 | 43 | 80 | 5.0 | 17.0 | 0.00 | 0.00 | 0.00 | 55 | 1019.2 |
| 20260510150016 | 43 | 345 | 11.0 | 17.0 | 0.00 | 0.00 | 0.00 | 55 | 1019.1 |
| 20260510144523 | 43 | 330 | 4.0 | 15.0 | 0.00 | 0.00 | 0.00 | 57 | 1018.9 |
| 20260510143025 | 43 | 345 | 8.0 | 15.0 | 0.00 | 0.00 | 0.00 | 56 | 1018.7 |
| 20260510141526 | 43 | 352 | 9.0 | 18.0 | 0.00 | 0.00 | 0.00 | 55 | 1019.0 |
| 20260510140027 | 42 | 41 | 9.0 | 16.0 | 0.00 | 0.00 | 0.00 | 57 | 1018.5 |
| 20260510134517 | 42 | 64 | 7.0 | 16.0 | 0.00 | 0.00 | 0.00 | 58 | 1018.4 |
| 20260510133022 | 41 | 354 | 7.0 | 20.0 | 0.00 | 0.00 | 0.00 | 61 | 1017.7 |
| 20260510131524 | 42 | 13 | 5.0 | 16.0 | 0.00 | 0.00 | 0.00 | 61 | 1018.1 |
| 20260510130027 | 40 | 346 | 7.0 | 18.0 | 0.00 | 0.00 | 0.00 | 63 | 1018.3 |
| 20260510124525 | 40 | 351 | 10.0 | 18.0 | 0.00 | 0.00 | 0.00 | 63 | 1017.9 |
| 20260510123025 | 40 | 339 | 5.0 | 19.0 | 0.00 | 0.00 | 0.00 | 64 | 1017.8 |
| 20260510121522 | 40 | 340 | 8.0 | 18.0 | 0.00 | 0.00 | 0.00 | 63 | 1017.7 |
| 20260510120024 | 40 | 354 | 9.0 | 18.0 | 0.00 | 0.00 | 0.00 | 64 | 1017.5 |
| 20260510114536 | 40 | 349 | 12.0 | 18.0 | 0.00 | 0.00 | 0.00 | 64 | 1017.1 |
| 20260510113039 | 40 | 347 | 6.0 | 11.0 | 0.00 | 0.00 | 0.00 | 64 | 1016.8 |
| 20260510111527 | 40 | 350 | 6.0 | 12.0 | 0.00 | 0.00 | 0.00 | 64 | 1016.7 |
| 20260510104510 | 41 | 358 | 10.0 | 16.0 | 0.00 | 0.00 | 0.00 | 63 | 1016.1 |
| 20260510103014 | 41 | 329 | 6.0 | 12.0 | 0.00 | 0.00 | 0.00 | 63 | 1015.9 |
| 20260510100031 | 42 | 321 | 9.0 | 14.0 | 0.00 | 0.00 | 0.00 | 63 | 1015.4 |
| 20260510094508 | 42 | 347 | 8.0 | 16.0 | 0.00 | 0.00 | 0.00 | 61 | 1010.7 |
| 20260510093014 | 42 | 307 | 8.0 | 12.0 | 0.00 | 0.00 | 0.00 | 61 | 1014.9 |
| 20260510091517 | 43 | 348 | 6.0 | 11.0 | 0.00 | 0.00 | 0.00 | 58 | 1014.8 |
| 20260510090020 | 43 | 350 | 7.0 | 17.0 | 0.00 | 0.00 | 0.00 | 58 | 1014.6 |
| 20260510084527 | 43 | 340 | 6.0 | 10.0 | 0.00 | 0.00 | 0.00 | 57 | 1014.5 |
| 20260510083015 | 44 | 346 | 6.0 | 13.0 | 0.00 | 0.00 | 0.00 | 56 | 1014.5 |
| 20260510081516 | 44 | 311 | 6.0 | 12.0 | 0.00 | 0.00 | 0.00 | 55 | 1014.2 |
| 20260510080021 | 44 | 339 | 7.0 | 11.0 | 0.00 | 0.00 | 0.00 | 55 | 1014.1 |
| 20260510074533 | 45 | 339 | 7.0 | 10.0 | 0.00 | 0.00 | 0.00 | 54 | 1014.1 |
| 20260510073025 | 45 | 347 | 9.0 | 16.0 | 0.00 | 0.00 | 0.00 | 53 | 1014.0 |
| 20260510071517 | 46 | 347 | 7.0 | 14.0 | 0.00 | 0.00 | 0.00 | 52 | 1013.9 |
| 20260510070016 | 46 | 352 | 8.0 | 14.0 | 0.00 | 0.00 | 0.00 | 50 | 1013.7 |
| 20260510064521 | 46 | 338 | 9.0 | 14.0 | 0.00 | 0.00 | 0.00 | 49 | 1013.6 |
| 20260510063023 | 46 | 322 | 7.0 | 12.0 | 0.00 | 0.00 | 0.00 | 48 | 1013.5 |
| 20260510061529 | 46 | 301 | 7.0 | 9.0 | 0.00 | 0.00 | 0.00 | 46 | 1013.5 |
| 20260510060012 | 46 | 326 | 6.0 | 9.0 | 0.00 | 0.00 | 0.00 | 45 | 1013.4 |
| 20260510054518 | 47 | 326 | 7.0 | 10.0 | 0.00 | 0.00 | 0.00 | 45 | 1013.3 |
| 20260510053022 | 47 | 326 | 4.0 | 11.0 | 0.00 | 0.00 | 0.00 | 44 | 1013.2 |
| 20260510051525 | 47 | 335 | 8.0 | 10.0 | 0.00 | 0.00 | 0.00 | 44 | 1013.1 |
| 20260510050027 | 46 | 313 | 8.0 | 10.0 | 0.00 | 0.00 | 0.00 | 44 | 1013.0 |
| 20260510044515 | 46 | 301 | 8.0 | 10.0 | 0.00 | 0.00 | 0.00 | 43 | 1012.9 |
| 20260510043021 | 46 | 295 | 7.0 | 9.0 | 0.00 | 0.00 | 0.00 | 42 | 1012.8 |
| 20260510041523 | 47 | 288 | 7.0 | 9.0 | 0.00 | 0.00 | 0.00 | 41 | 1012.7 |
| 20260510040028 | 47 | 284 | 6.0 | 7.0 | 0.00 | 0.00 | 0.00 | 41 | 1012.6 |
| 20260510034529 | 47 | 284 | 4.0 | 10.0 | 0.00 | 0.00 | 0.00 | 40 | 1012.6 |
| 20260510033020 | 47 | 285 | 5.0 | 11.0 | 0.00 | 0.00 | 0.00 | 40 | 1012.6 |
| 20260510031528 | 48 | 284 | 5.0 | 10.0 | 0.00 | 0.00 | 0.00 | 40 | 1012.5 |
| 20260510030023 | 48 | 285 | 6.0 | 8.0 | 0.00 | 0.00 | 0.00 | 40 | 1012.5 |
| 20260510024527 | 48 | 284 | 6.0 | 7.0 | 0.00 | 0.00 | 0.00 | 40 | 1012.1 |
| 20260510023026 | 49 | 298 | 6.0 | 9.0 | 0.00 | 0.00 | 0.00 | 38 | 1012.1 |
| 20260510021532 | 49 | 335 | 5.0 | 10.0 | 0.00 | 0.00 | 0.00 | 38 | 1012.1 |
| 20260510020028 | 50 | 335 | 6.0 | 13.0 | 0.00 | 0.00 | 0.00 | 37 | 1012.0 |
| 20260510014526 | 50 | 350 | 3.0 | 12.0 | 0.00 | 0.00 | 0.00 | 36 | 1011.7 |
| 20260510013014 | 50 | 360 | 11.0 | 18.0 | 0.00 | 0.00 | 0.00 | 35 | 1009.7 |
| 20260510011520 | 50 | 1 | 7.0 | 17.0 | 0.00 | 0.00 | 0.00 | 34 | 1006.7 |
| 20260510010023 | 51 | 359 | 11.0 | 17.0 | 0.00 | 0.00 | 0.00 | 34 | 1006.3 |
| 20260510004509 | 52 | 1 | 4.0 | 14.0 | 0.00 | 0.00 | 0.00 | 33 | 1010.6 |
| 20260510003014 | 52 | 356 | 5.0 | 18.0 | 0.00 | 0.00 | 0.00 | 32 | 1010.4 |
| 20260510001521 | 53 | 352 | 10.0 | 20.0 | 0.00 | 0.00 | 0.00 | 31 | 1010.3 |
| 20260510000027 | 53 | 75 | 3.0 | 20.0 | 0.00 | 0.00 | 0.00 | 31 | 1010.0 |
| 20260509234525 | 54 | 328 | 8.0 | 24.0 | 0.00 | 0.00 | 0.00 | 30 | 1009.7 |
| 20260509233011 | 53 | 350 | 14.0 | 26.0 | 0.00 | 0.00 | 0.00 | 30 | 1005.2 |
| 20260509231517 | 54 | 336 | 7.0 | 20.0 | 0.00 | 0.00 | 0.00 | 31 | 1009.3 |
| 20260509230027 | 54 | 360 | 14.0 | 22.0 | 0.00 | 0.00 | 0.00 | 30 | 1009.0 |
| 20260509224522 | 53 | 340 | 11.0 | 20.0 | 0.00 | 0.00 | 0.00 | 31 | 1008.9 |
| 20260509223024 | 53 | 359 | 14.0 | 25.0 | 0.00 | 0.00 | 0.00 | 31 | 1008.9 |
| 20260509221510 | 54 | 1 | 13.0 | 23.0 | 0.00 | 0.00 | 0.00 | 30 | 1008.5 |
| 20260509220017 | 55 | 3 | 7.0 | 27.0 | 0.00 | 0.00 | 0.00 | 29 | 1008.4 |
| 20260509214534 | 55 | 342 | 16.0 | 23.0 | 0.00 | 0.00 | 0.00 | 29 | 1008.2 |
| 20260509213024 | 54 | 340 | 8.0 | 20.0 | 0.00 | 0.00 | 0.00 | 30 | 1008.0 |
| 20260509211511 | 53 | 339 | 14.0 | 22.0 | 0.00 | 0.00 | 0.00 | 30 | 1007.9 |
| 20260509210015 | 54 | 55 | 9.0 | 18.0 | 0.00 | 0.00 | 0.00 | 30 | 1006.7 |
| 20260509204529 | 54 | 357 | 5.0 | 15.0 | 0.00 | 0.00 | 0.00 | 31 | 1007.8 |
| 20260509203023 | 54 | 359 | 6.0 | 22.0 | 0.00 | 0.00 | 0.00 | 31 | 1007.8 |
| 20260509201527 | 53 | 356 | 8.0 | 20.0 | 0.00 | 0.00 | 0.00 | 32 | 1007.6 |
| 20260509200013 | 53 | 68 | 14.0 | 24.0 | 0.00 | 0.00 | 0.00 | 31 | 1007.2 |
| 20260509194522 | 53 | 341 | 10.0 | 20.0 | 0.00 | 0.00 | 0.00 | 31 | 1007.5 |
| 20260509193034 | 53 | 53 | 9.0 | 24.0 | 0.00 | 0.00 | 0.00 | 32 | 1007.4 |
| 20260509191526 | 52 | 346 | 11.0 | 21.0 | 0.00 | 0.00 | 0.00 | 32 | 1007.4 |
| 20260509190027 | 52 | 359 | 5.0 | 22.0 | 0.00 | 0.00 | 0.00 | 32 | 1005.6 |
| 20260509184518 | 51 | 10 | 15.0 | 22.0 | 0.00 | 0.00 | 0.00 | 31 | 1007.4 |
| 20260509183004 | 51 | 12 | 15.0 | 25.0 | 0.00 | 0.00 | 0.00 | 33 | 1005.7 |
| 20260509181508 | 51 | 355 | 12.0 | 22.0 | 0.00 | 0.00 | 0.00 | 34 | 1007.3 |
| 20260509180024 | 50 | 91 | 15.0 | 25.0 | 0.00 | 0.00 | 0.00 | 34 | 1007.0 |
| 20260509174518 | 50 | 1 | 8.0 | 24.0 | 0.00 | 0.00 | 0.00 | 36 | 1007.0 |
| 20260509173028 | 49 | 340 | 4.0 | 31.0 | 0.00 | 0.00 | 0.00 | 36 | 1006.0 |
| 20260509171511 | 50 | 349 | 8.0 | 25.0 | 0.00 | 0.00 | 0.00 | 37 | 1006.7 |
| 20260509170008 | 49 | 360 | 7.0 | 26.0 | 0.00 | 0.00 | 0.00 | 37 | 1005.6 |
| 20260509164512 | 50 | 1 | 10.0 | 29.0 | 0.00 | 0.00 | 0.00 | 37 | 1006.2 |